RH
97 95 92 84 80 78 71 67 62 59 58 52 56 53 51 52 52 56 64 62 74 59 51 54 53 53 53 54 55 56 56 57 58 60 63 63 62 63 65 67 68 69 72
95 94 92 90 89 76 72 68 65 63 63 58 56 55 54 56 53 54 59 70 70 72 58 51 48 49 49 52 54 55 56 56 55 55 56 56 60 61 62 63 64 66 67
87 85 86 81 79 76 73 69 67 67 64 55 56 53 56 57 55 54 52 64 91 81 69 52 45 47 44 45 49 49 53 51 51 53 56 57 58 57 57 58 60 62 63
80 80 82 87 85 78 75 73 68 68 69 65 60 57 58 58 56 56 54 52 71 75 66 59 50 45 41 40 46 44 46 46 48 50 52 54 53 53 51 51 54 57 59
77 82 87 84 79 78 76 68 74 70 67 64 57 56 65 63 63 52 56 55 56 56 56 54 58 58 45 41 40 41 41 49 49 50 48 48 49 50 51 51 51 53 56
79 80 79 80 71 76 75 70 67 74 72 68 49 53 70 66 66 68 63 55 57 57 56 54 57 60 55 44 47 49 50 51 50 50 50 49 48 48 50 51 51 52 53
78 79 77 73 71 70 70 66 72 68 75 77 70 75 73 71 66 69 71 69 62 59 58 58 62 61 58 55 51 43 44 47 48 47 49 51 47 50 51 52 52 52 52
74 72 72 70 69 74 71 70 72 79 78 80 75 82 79 74 70 67 71 70 71 69 60 56 60 56 58 59 60 49 48 48 47 46 45 45 47 47 47 46 48 50 50
73 71 71 74 72 73 74 74 76 74 76 80 78 74 84 86 88 80 73 78 75 75 71 67 60 52 54 59 58 62 60 60 49 44 45 46 47 47 48 47 47 47 48
71 69 69 71 73 77 75 78 76 80 83 82 85 73 81 81 89 94 86 79 82 74 77 76 70 58 58 62 55 59 70 72 65 58 51 49 47 46 46 46 47 47 48
71 65 67 73 79 78 74 74 78 79 87 85 87 88 89 93 92 95 97 92 87 80 78 81 77 69 61 62 64 62 71 71 74 54 47 46 45 47 49 47 45 47 53
74 68 62 70 72 68 69 74 76 74 83 90 93 93 92 92 93 96 99 96 96 92 87 78 71 67 68 68 54 58 63 59 59 54 51 51 47 45 46 45 47 47 48
70 64 67 72 63 64 65 66 71 74 78 85 88 93 95 94 94 95 96 97 88 86 79 76 71 70 56 73 70 57 58 62 60 52 47 45 46 47 48 48 48 49 50
70 76 76 61 57 61 67 73 79 84 88 92 88 91 95 95 96 95 96 96 97 85 85 74 74 68 67 68 61 55 70 60 60 60 58 53 52 51 50 50 50 50 50
76 70 61 63 64 68 72 79 85 84 85 86 85 87 92 94 96 96 96 96 97 94 96 84 75 64 63 64 59 64 68 59 57 58 56 54 52 52 51 50 50 50 50
64 60 61 62 64 71 77 77 82 84 80 86 84 86 88 91 87 85 84 86 95 97 95 78 72 65 63 50 54 61 64 58 59 55 53 54 54 54 53 53 53 53 53
57 60 61 62 64 70 77 79 80 80 78 82 83 83 84 86 84 83 86 94 97 98 97 74 74 71 71 71 66 70 70 71 70 59 58 57 58 63 64 62 62 60 57
58 61 63 61 61 68 77 80 77 75 80 82 80 81 84 73 84 84 83 75 73 70 72 70 73 75 75 72 72 74 61 53 68 62 62 64 61 60 60 60 62 65 67
57 61 62 65 65 70 79 79 76 78 81 84 82 83 84 85 87 86 75 72 70 55 72 78 80 78 79 75 74 74 74 77 66 64 59 58 57 58 61 60 62 64 68
61 62 66 70 73 74 79 75 73 80 82 80 84 87 87 87 88 81 66 66 61 69 77 80 78 71 75 75 83 85 83 82 70 58 62 64 62 63 63 65 65 65 64
58 65 70 71 76 76 72 79 80 85 87 84 81 82 82 68 65 67 59 64 72 78 79 78 76 75 77 84 86 84 91 79 77 75 74 72 74 72 74 75 72 72 72
67 67 70 75 78 72 76 82 83 85 82 84 93 92 88 78 76 73 70 66 73 75 78 86 80 79 86 88 98 94 88 91 90 83 92 85 82 81 77 79 75 76 75
71 69 71 72 77 82 81 82 80 84 89 94 95 90 78 60 71 75 77 75 72 66 79 85 91 90 97 89 82 89 89 90 90 83 92 85 85 88 77 68 72 72 73
74 74 76 76 82 78 81 83 84 93 94 92 85 81 77 75 76 74 74 77 73 70 67 61 78 87 85 80 85 80 91 94 91 84 90 95 84 90 83 82 77 73 74
77 79 77 81 84 86 84 85 89 98 97 94 77 81 78 80 76 76 82 86 79 74 58 58 64 65 67 68 68 93 93 97 92 85 85 95 96 87 84 85 84 76 77
75 82 84 88 88 91 84 89 93 99 99 94 87 82 82 83 78 78 91 92 94 80 71 70 78 75 71 79 76 85 97 97 94 92 92 96 82 90 97 96 94 95 91
Wind_Speed
4 4 4 4 4 4 4 6 6 5 7 8 7 6 7 7 7 4 3 12 7 3 2 4 4 5 7 8 8 8 10 11 11 13 13 14 15 17 19 19 19 20 20
5 4 4 4 5 4 4 5 5 5 5 4 6 6 6 6 6 6 4 5 10 2 3 4 3 4 6 7 7 7 8 9 9 10 11 13 14 15 16 17 18 19 18
6 5 5 4 4 3 6 5 5 3 4 5 7 6 5 5 5 6 7 6 6 10 11 9 4 4 3 3 4 4 6 6 6 8 9 9 10 12 13 15 16 17 18
7 5 5 4 4 4 4 4 3 5 5 5 4 4 4 4 5 6 5 5 5 4 8 12 7 4 2 3 3 1 2 2 4 6 6 8 9 11 13 14 14 15 16
6 5 5 4 5 4 4 4 4 4 4 3 1 2 2 3 3 3 5 6 6 5 4 8 8 5 3 4 4 3 3 1 2 2 2 3 5 8 10 12 13 14 15
6 6 5 5 4 5 4 3 4 3 2 1 1 3 2 1 2 3 3 3 4 5 4 4 3 4 7 3 2 3 2 5 3 2 2 2 4 7 8 11 13 14 15
6 6 4 5 4 5 4 3 3 3 1 1 2 3 2 1 2 1 3 1 2 3 2 3 2 2 4 10 10 8 9 9 10 10 8 8 5 8 9 10 12 14 15
6 6 6 5 5 5 4 3 3 1 0 1 2 1 3 4 3 2 1 2 1 3 3 3 3 3 3 3 6 11 13 15 15 13 13 10 9 10 11 13 13 14 16
6 6 5 5 5 4 3 2 2 3 1 1 3 3 1 4 2 2 3 2 2 2 3 3 3 3 3 3 5 8 12 13 15 15 15 10 12 13 14 14 13 14 15
5 4 5 5 5 2 3 2 3 2 2 3 1 3 1 3 3 4 3 3 2 3 4 3 4 4 3 3 7 9 10 10 11 12 11 13 15 15 16 16 15 15 17
5 5 6 4 5 4 3 4 3 2 1 1 3 2 2 1 1 3 3 3 2 4 4 4 4 4 4 4 4 6 10 9 10 10 13 16 15 17 19 19 17 19 19
4 5 5 5 3 4 4 2 2 2 1 2 2 3 4 3 3 4 4 4 4 3 3 4 4 3 3 3 7 9 10 7 6 8 11 14 17 20 20 20 21 22 23
3 4 4 5 2 3 3 3 3 2 1 2 3 2 2 4 2 3 2 3 4 1 3 3 3 2 4 4 5 12 13 13 11 9 11 13 15 17 19 21 23 25 26
3 5 5 4 4 3 3 3 1 1 1 1 1 1 2 4 3 3 3 3 4 2 2 5 2 3 4 4 8 15 6 14 13 13 11 13 15 17 19 21 24 26 28
3 2 4 5 5 5 5 6 4 4 3 3 2 2 2 3 3 3 3 2 2 3 2 3 1 1 4 4 9 6 7 13 17 15 16 17 18 19 21 23 24 25 26
4 5 5 6 6 5 6 5 4 3 3 2 2 2 3 2 3 1 1 2 2 3 2 3 4 2 2 4 7 7 8 17 16 18 18 18 19 20 21 21 22 22 23
7 6 6 6 6 5 5 4 4 4 3 3 3 4 5 4 3 3 3 3 3 3 3 3 3 2 2 4 6 5 7 6 6 15 17 18 18 17 17 18 18 19 19
5 6 6 6 4 3 6 5 5 4 5 5 6 4 5 3 4 3 2 4 3 3 3 5 3 2 4 4 5 6 7 7 6 13 16 16 19 19 20 20 20 19 19
4 5 4 4 5 5 5 6 5 5 5 6 5 5 6 5 5 3 4 4 3 3 3 3 3 2 4 3 4 5 5 6 6 13 18 20 21 21 21 21 21 21 18
2 2 4 5 5 6 5 5 5 5 5 5 5 5 5 5 6 5 5 5 4 3 3 3 3 4 3 3 3 5 6 3 8 8 14 15 17 18 20 21 21 22 23
1 1 2 4 4 3 3 5 5 5 5 6 5 5 5 4 6 8 4 5 4 3 3 3 4 3 4 3 5 5 7 7 8 7 7 6 6 8 9 14 16 19 19
1 2 3 3 3 3 7 7 6 5 6 6 6 6 5 8 9 9 10 8 8 4 4 3 3 4 5 4 3 5 6 6 6 3 2 10 5 9 8 7 17 20 22
0 3 4 4 5 6 8 9 9 5 5 5 6 5 4 3 5 4 7 8 7 8 6 4 5 4 4 4 5 7 7 8 8 7 4 11 6 9 8 9 20 23 23
3 4 5 6 6 6 9 10 10 5 5 6 6 5 5 6 5 5 5 5 5 5 6 5 5 5 6 6 5 6 8 8 6 6 3 8 7 8 9 8 21 24 20
2 2 4 6 7 7 8 9 8 5 5 6 6 5 6 6 9 12 6 6 6 6 6 9 9 10 11 12 10 2 5 6 8 7 4 3 3 9 8 10 9 16 16
3 3 5 5 7 7 9 11 9 3 6 5 5 6 11 8 10 13 6 6 5 6 4 4 4 6 7 7 11 4 3 6 6 6 2 3 8 5 5 3 3 4 6
Wind_Direction
109 99 93 82 77 75 76 72 69 59 54 52 53 48 39 32 22 12 357 356 346 350 98 132 134 104 87 77 66 65 62 54 40 34 27 26 20 21 14 11 13 11 7
117 110 92 86 82 81 77 77 77 72 66 74 55 41 39 31 23 18 7 346 340 327 88 99 78 78 81 73 63 52 73 73 57 43 28 22 21 23 17 11 10 8 3
116 119 108 92 102 91 90 79 73 87 71 56 51 34 36 21 23 26 18 19 19 16 49 35 38 99 72 77 65 67 68 49 47 44 35 30 28 21 17 12 8 6 4
115 106 108 112 125 98 99 98 103 57 55 53 48 10 32 28 45 43 28 24 29 35 20 20 31 52 60 347 98 67 99 53 42 48 50 33 21 14 6 360 356 357 358
112 114 117 120 115 106 78 79 54 86 58 36 110 340 46 51 64 57 44 39 49 51 37 33 43 28 31 9 357 311 304 80 74 70 63 24 3 357 356 350 348 347 347
125 115 112 120 108 95 94 77 92 57 134 184 223 331 356 51 105 74 70 46 58 39 33 42 24 342 1 49 60 330 268 214 219 239 284 309 327 335 339 336 334 335 337
133 126 117 123 128 124 141 131 119 132 181 3 65 339 334 334 92 63 116 76 44 1 31 14 345 353 346 351 334 293 286 270 264 276 254 256 286 307 315 319 320 323 327
143 143 144 146 134 117 122 129 130 130 188 155 127 105 358 330 288 244 93 214 357 312 341 350 335 1 339 331 330 335 318 293 285 282 282 279 286 289 304 304 310 315 318
164 147 149 138 139 110 149 158 146 145 161 294 221 149 11 237 316 322 253 211 244 269 295 301 283 311 324 331 342 325 313 303 281 282 281 270 278 289 296 296 293 299 304
153 104 98 118 114 99 119 146 129 140 127 237 305 246 295 153 210 313 317 266 327 286 267 290 289 297 315 319 331 327 327 309 290 277 270 280 284 282 283 285 289 292 294
100 111 90 68 91 98 88 75 75 85 184 209 204 255 262 300 232 220 281 287 266 266 271 250 262 277 294 324 320 310 326 326 301 283 287 279 282 283 286 287 284 285 290
84 89 105 118 112 108 109 107 104 74 33 240 229 213 203 210 220 210 239 253 235 274 293 282 247 255 321 344 326 345 329 350 334 302 296 293 291 291 291 292 293 294 292
116 133 125 110 130 154 115 84 65 44 340 297 302 289 235 233 206 221 223 251 282 192 266 269 251 357 17 6 358 355 347 330 314 297 287 286 290 291 291 291 291 290 290
136 162 146 145 152 121 106 112 108 74 65 67 6 278 277 267 241 223 222 214 266 268 279 245 351 38 10 351 347 346 340 337 326 313 305 300 294 289 287 286 285 284 282
161 199 155 173 173 169 168 156 147 152 170 169 183 236 240 263 248 252 230 206 229 285 277 302 261 334 11 342 332 342 333 319 312 312 304 298 294 291 291 288 284 282 282
214 169 174 189 182 179 173 162 170 189 198 228 235 270 275 267 291 306 112 105 114 199 247 205 242 266 309 307 314 320 301 305 306 302 300 299 296 293 290 287 283 282 281
182 186 191 191 193 186 182 183 200 206 227 245 252 255 273 253 245 214 201 188 205 183 232 271 238 248 263 269 293 282 286 280 279 297 304 298 295 300 300 297 296 292 289
185 186 203 220 206 204 206 207 221 218 233 248 255 260 261 261 250 239 209 201 192 207 211 262 246 256 242 259 268 288 296 301 296 301 299 313 303 297 295 294 292 289 285
192 222 239 253 255 252 232 222 218 237 243 248 250 249 255 250 251 225 216 211 217 221 218 244 279 247 258 258 287 292 293 294 293 303 303 296 293 295 292 288 285 281 277
216 265 269 276 270 256 228 218 230 248 251 254 252 239 250 255 246 235 215 219 211 220 236 258 271 276 257 287 284 303 305 298 303 299 294 293 294 291 295 293 289 283 280
212 281 284 294 298 243 225 232 247 250 254 253 238 237 238 252 271 236 198 208 198 215 243 259 272 274 290 303 298 303 297 301 294 276 280 285 282 292 284 288 282 282 283
97 101 14 336 289 256 251 255 232 241 246 242 246 253 252 270 266 246 203 203 191 198 232 233 254 276 277 272 270 286 292 300 306 248 291 295 285 283 279 274 277 281 282
279 285 287 283 271 265 261 265 248 232 240 250 252 250 270 250 225 210 204 198 207 236 232 213 237 245 247 247 284 285 283 278 284 291 283 296 289 283 282 276 279 281 286
278 287 295 293 276 262 244 251 236 232 246 247 233 241 234 242 235 215 206 222 232 241 250 249 229 245 250 262 243 277 289 290 281 279 264 286 293 284 284 273 275 284 284
320 290 292 296 274 265 265 263 248 227 238 247 238 227 229 240 249 236 200 221 243 253 263 261 262 281 296 304 307 327 305 306 303 301 276 256 281 297 285 281 277 282 281
250 287 293 292 282 271 271 262 255 210 247 244 243 234 246 236 239 225 197 208 239 256 247 256 271 282 290 289 301 275 263 291 297 306 282 323 301 302 304 259 265 265 275